Showing default

CHINASAT-9C, 64470

Orbit data source: Space-Track

CHINASAT-9C, 64470 is a payload satellite owned by CAST (CN) in GEO that was launched on Fri, 20 Jun 2025 UTC via a CHANG ZHENG 3B launch vehicle from the Xichang Space Center, China (XSC). Payload-class satellites include a variety of spacecraft equipped with specific instruments for various scientific and technological missions. These include communications satellites like Starlink; space stations such as the ISS; scientific satellites like the Hubble; Earth observation satellites from companies like Planet Labs, Umbra, and HawkEye 360; GPS; miniature CubeSats for education and research; and military/defense satellites.

Not visible in the next 10 days
Identifier
64470, 2025-132A
Orbit
GEO
Country
Flag of CNCN / PRC
Related business
Manufacturer
CAST
Mission
Operational Civil Communications
Bus & Motor
DFH-4E, FY-25
Mass
5,500 kg wet, ~2,500 kg dry
Launch date (UTC)
Icon of a cake. It is the launch day of the satellite!2025-06-20 (1 year ago)
Launch vehicle
CHANG ZHENG 3B
Launch site
Xichang Space Center, China (XSC)
Object type
Payload
Rocket body
Debris
Shape & HBR
Box + 2 Pan + 1 Dish, 10.0 m
Radar Cross Section
29.863 m²

Expand to show TLE details & history
Last TLE update: 14 hours ago

TLE from 14 hours ago
0 CHINASAT-9C
1 64470U 25132A   26171.33878891 -.00000252  00000-0  00000+0 0  9997
2 64470   0.0131  73.6837 0003074  13.1824  35.8296  1.00273457  4180
Epoch: 2026-06-20T08:07Z
TLE epoch observation values (Epoch: 2026-06-20T08:07:51.361Z)
Latitude
0.01883°
Longitude
92.20992°
Altitude
35,775.063 km
Speed
3.076 km/s
True Right ascension
08h 10m 54s
True Declination
0° 01' 08"
Sunlit
Object was in daylight at epoch
Visualization orbit readout
Latitude
Unknown
Longitude
Unknown
Altitude
Unknown
Speed
Unknown
Apparent Right ascension
Unknown
Apparent Declination
Unknown
Sunlit
N/A
Visualization observer readout
Local Sidereal Time
08:42:05
Azimuth
Unknown
Elevation
Unknown
Doppler factor
Unknown
Orbital elements
Apogee altitude
35,800.158 km
Perigee altitude
35,774.235 km
Semi-major axis
42,165.334 km
Eccentricity
0.00031
Inclination
0.0131°
RAAN
73.6837°
Arg. of periapsis
13.1824°
True anomaly
35.85023°
Mean anomaly
35.8296°
Eccentric anomaly
35.83991°
Mean motion
0.25067 °/min
Orbital period
1,436.13 mins
BSTAR
0
Loading maneuver chart data...
Computing Atmospheric mass density...
Loading historical data...
Loading historical data...
Loading historical data...
Loading historical data...
Loading historical data...
Loading historical data...
Loading historical data...
Other satellites on launch #132 in the year 2025 (2025-06-20 UTC)

Documentation

Showing up to 5 results
|